Location: Bessat
(45.8735°N, 1.9924°E)
Time: 07:52:58
(UTC+00:00)

Cosmos 1536 - Pass Details

Date: 11 May 2021
Orbit: 539 x 558 km, 82.5° (Epoch: 20 June)

Event Time Altitude Azimuth Distance (km) Brightness Sun altitude
Rises 21:04:21 0° 1° (N) 2,747 7.2 -16.0°
Reaches altitude 10° 21:06:49 10° 15° (NNE) 1,843 6.0 -16.3°
Maximum altitude 21:10:15 26° 72° (ENE) 1,109 4.1 -16.7°
Enters shadow 21:11:08 24° 95° (E) 1,170 4.1 -16.8°
